EN

Hourly Weather Almeirim

Today, 16 January, Saturday

Time Temperature Precipitation Wind Pressure Humidity
00:00 +6°C° 0 mm 1 mps 770 mmHg 91%
01:00 +5°C° 0 mm 1 mps 770 mmHg 91%
02:00 +5°C° 0 mm 1 mps 770 mmHg 90%
03:00 +5°C° 0 mm 1 mps 770 mmHg 90%
04:00 +4°C° 0 mm 1 mps 770 mmHg 89%
05:00 +4°C° 0 mm 1 mps 770 mmHg 89%
06:00 +5°C° 0 mm 1 mps 770 mmHg 87%
07:00 +5°C° 0 mm 1 mps 770 mmHg 84%
08:00 +6°C° 0 mm 1 mps 770 mmHg 82%
09:00 +8°C° 0 mm 1 mps 770 mmHg 74%
10:00 +10°C° 0 mm 1 mps 770 mmHg 66%
11:00 +12°C° 0 mm 1 mps 770 mmHg 58%
12:00 +13°C° 0 mm 1 mps 770 mmHg 55%
13:00 +14°C° 0 mm 1 mps 769 mmHg 52%
14:00 +15°C° 0 mm 1 mps 769 mmHg 49%
15:00 +12°C° 0 mm 1 mps 769 mmHg 58%
16:00 +10°C° 0 mm 1 mps 769 mmHg 66%
17:00 +8°C° 0 mm 1 mps 769 mmHg 75%
18:00 +7°C° 0 mm 1 mps 770 mmHg 77%
19:00 +7°C° 0 mm 1 mps 770 mmHg 79%
20:00 +6°C° 0 mm 1 mps 771 mmHg 81%
21:00 +6°C° 0 mm 1 mps 771 mmHg 81%
22:00 +5°C° 0 mm 1 mps 771 mmHg 81%
23:00 +5°C° 0 mm 1 mps 771 mmHg 80%

Tomorrow, 17 January, Sunday

Time Temperature Precipitation Wind Pressure Humidity
00:00 +5°C° 0 mm 1 mps 770 mmHg 80%
01:00 +4°C° 0 mm 1 mps 770 mmHg 80%
02:00 +4°C° 0 mm 1 mps 770 mmHg 81%
03:00 +4°C° 0 mm 1 mps 770 mmHg 81%
04:00 +4°C° 0 mm 1 mps 770 mmHg 82%
05:00 +4°C° 0 mm 1 mps 770 mmHg 83%
06:00 +4°C° 0 mm 1 mps 770 mmHg 81%
07:00 +5°C° 0 mm 1 mps 770 mmHg 79%
08:00 +6°C° 0 mm 1 mps 771 mmHg 76%
09:00 +8°C° 0 mm 1 mps 771 mmHg 69%
10:00 +10°C° 0 mm 1 mps 771 mmHg 61%
11:00 +13°C° 0 mm 1 mps 771 mmHg 53%
12:00 +14°C° 0 mm 1 mps 770 mmHg 52%
13:00 +15°C° 0 mm 1 mps 769 mmHg 50%
14:00 +16°C° 0 mm 1 mps 769 mmHg 48%
15:00 +13°C° 0 mm 1 mps 769 mmHg 57%
16:00 +11°C° 0 mm 1 mps 769 mmHg 65%
17:00 +9°C° 0 mm 1 mps 769 mmHg 73%
18:00 +8°C° 0 mm 1 mps 769 mmHg 74%
19:00 +8°C° 0 mm 1 mps 769 mmHg 75%
20:00 +7°C° 0 mm 1 mps 769 mmHg 76%
21:00 +7°C° 0 mm 1 mps 769 mmHg 77%
22:00 +6°C° 0 mm 1 mps 769 mmHg 78%
23:00 +6°C° 0 mm 1 mps 769 mmHg 79%

Day after tomorrow, 18 January, Monday

Time Temperature Precipitation Wind Pressure Humidity
00:00 +5°C° 0 mm 1 mps 769 mmHg 80%
01:00 +5°C° 0 mm 1 mps 769 mmHg 81%
02:00 +5°C° 0 mm 1 mps 769 mmHg 81%
03:00 +5°C° 0 mm 1 mps 768 mmHg 82%
04:00 +4°C° 0 mm 1 mps 768 mmHg 83%
05:00 +3°C° 0 mm 2 mps 768 mmHg 84%
06:00 +4°C° 0 mm 2 mps 768 mmHg 81%
07:00 +4°C° 0 mm 2 mps 768 mmHg 79%
08:00 +5°C° 0 mm 2 mps 769 mmHg 77%
09:00 +7°C° 0 mm 2 mps 769 mmHg 70%
10:00 +9°C° 0 mm 2 mps 769 mmHg 62%
11:00 +13°C° 0 mm 2 mps 769 mmHg 55%
12:00 +14°C° 0 mm 2 mps 768 mmHg 53%
13:00 +14°C° 0 mm 1 mps 767 mmHg 51%
14:00 +15°C° 0 mm 1 mps 767 mmHg 49%
15:00 +13°C° 0 mm 1 mps 767 mmHg 57%
16:00 +11°C° 0 mm 1 mps 767 mmHg 66%
17:00 +8°C° 0 mm 0 mps 767 mmHg 75%
18:00 +8°C° 0 mm 1 mps 767 mmHg 77%
19:00 +8°C° 0 mm 1 mps 767 mmHg 80%
20:00 +7°C° 0 mm 1 mps 767 mmHg 82%
21:00 +7°C° 0 mm 1 mps 767 mmHg 84%
22:00 +6°C° 0 mm 1 mps 767 mmHg 86%
23:00 +6°C° 0 mm 1 mps 767 mmHg 87%

19 January, Tuesday

Time Temperature Precipitation Wind Pressure Humidity
00:00 +6°C° 0 mm 1 mps 767 mmHg 88%
01:00 +5°C° 0 mm 1 mps 767 mmHg 89%
02:00 +5°C° 0 mm 1 mps 766 mmHg 90%
03:00 +5°C° 0 mm 1 mps 766 mmHg 90%
04:00 +5°C° 0 mm 1 mps 766 mmHg 90%
05:00 +5°C° 0 mm 1 mps 765 mmHg 91%
06:00 +5°C° 0 mm 2 mps 765 mmHg 90%
07:00 +5°C° 0 mm 2 mps 765 mmHg 89%
08:00 +6°C° 0 mm 2 mps 765 mmHg 88%
09:00 +8°C° 0 mm 2 mps 765 mmHg 84%
10:00 +10°C° 0 mm 3 mps 765 mmHg 80%
11:00 +12°C° 0 mm 3 mps 765 mmHg 76%
12:00 +12°C° 0 mm 4 mps 764 mmHg 76%
13:00 +13°C° 0 mm 4 mps 763 mmHg 75%
14:00 +14°C° 0 mm 5 mps 763 mmHg 74%
15:00 +13°C° 0 mm 4 mps 762 mmHg 76%
16:00 +12°C° 0 mm 4 mps 762 mmHg 79%
17:00 +12°C° 0 mm 4 mps 761 mmHg 81%
18:00 +12°C° 0 mm 4 mps 761 mmHg 82%
19:00 +12°C° 0 mm 4 mps 760 mmHg 83%
20:00 +10°C° 0 mm 5 mps 760 mmHg 84%
21:00 +12°C° 0.2 mm 5 mps 759 mmHg 85%
22:00 +11°C° 0.2 mm 6 mps 758 mmHg 85%
23:00 +11°C° 0.2 mm 6 mps 757 mmHg 86%

20 January, Wednesday

Time Temperature Precipitation Wind Pressure Humidity
00:00 +11°C° 2.7 mm 7 mps 756 mmHg 88%
01:00 +11°C° 2.7 mm 8 mps 755 mmHg 91%
02:00 +11°C° 2.7 mm 9 mps 754 mmHg 94%
03:00 +11°C° 3 mm 7 mps 754 mmHg 93%
04:00 +13°C° 3 mm 6 mps 753 mmHg 93%
05:00 +13°C° 3 mm 5 mps 753 mmHg 92%
06:00 +13°C° 0.2 mm 5 mps 753 mmHg 93%
07:00 +12°C° 0.2 mm 4 mps 753 mmHg 93%
08:00 +12°C° 0.2 mm 3 mps 753 mmHg 93%
09:00 +13°C° 0.5 mm 5 mps 754 mmHg 90%
10:00 +14°C° 0.5 mm 6 mps 754 mmHg 87%
11:00 +15°C° 0.5 mm 7 mps 754 mmHg 84%
12:00 +15°C° 0.7 mm 7 mps 754 mmHg 83%
13:00 +15°C° 0.7 mm 7 mps 754 mmHg 83%
14:00 +15°C° 0.7 mm 7 mps 754 mmHg 82%
15:00 +14°C° 0.2 mm 6 mps 755 mmHg 85%
16:00 +13°C° 0.2 mm 5 mps 755 mmHg 89%
17:00 +12°C° 0.2 mm 4 mps 756 mmHg 92%
18:00 +11°C° 0 mm 3 mps 757 mmHg 93%
19:00 +11°C° 0 mm 3 mps 757 mmHg 94%
20:00 +11°C° 0 mm 3 mps 758 mmHg 95%
21:00 +11°C° 0 mm 3 mps 758 mmHg 96%
22:00 +10°C° 0 mm 2 mps 759 mmHg 96%
23:00 +10°C° 0 mm 2 mps 759 mmHg 96%

21 January, Thursday

Time Temperature Precipitation Wind Pressure Humidity
00:00 +10°C° 0 mm 2 mps 759 mmHg 97%
01:00 +10°C° 0 mm 2 mps 759 mmHg 97%
02:00 +10°C° 0 mm 2 mps 759 mmHg 97%
03:00 +10°C° 0.1 mm 2 mps 759 mmHg 97%
04:00 +10°C° 0.1 mm 2 mps 759 mmHg 97%
05:00 +10°C° 0.1 mm 2 mps 759 mmHg 97%
06:00 +11°C° 0.1 mm 3 mps 759 mmHg 96%
07:00 +12°C° 0.1 mm 4 mps 759 mmHg 95%
08:00 +12°C° 0.1 mm 4 mps 759 mmHg 94%
09:00 +13°C° 0.1 mm 5 mps 759 mmHg 90%
10:00 +14°C° 0.1 mm 6 mps 758 mmHg 86%
11:00 +13°C° 0.1 mm 8 mps 758 mmHg 82%
12:00 +13°C° 0.4 mm 8 mps 757 mmHg 85%
13:00 +13°C° 0.4 mm 8 mps 757 mmHg 88%
14:00 +13°C° 0.4 mm 8 mps 757 mmHg 91%
15:00 +14°C° 0.4 mm 7 mps 757 mmHg 92%
16:00 +13°C° 0.4 mm 5 mps 757 mmHg 92%
17:00 +13°C° 0.4 mm 4 mps 757 mmHg 92%
18:00 +12°C° 0 mm 4 mps 758 mmHg 92%
19:00 +11°C° 0 mm 4 mps 759 mmHg 92%
20:00 +11°C° 0 mm 4 mps 759 mmHg 91%
21:00 +11°C° 0.1 mm 4 mps 760 mmHg 90%
22:00 +11°C° 0.1 mm 4 mps 760 mmHg 89%
23:00 +11°C° 0.1 mm 4 mps 761 mmHg 88%
Show more